sat.trackr.live / text

‹ back to catalog

STARLINK-37635

NORAD 69029 · 2026-101E

PAYLOAD ACTIVE UNKNOWN

§ Identity

Operator
Country
US
Launch date
2026-05-06
Launch site
AFWTR
Launch vehicle
Mass (kg)
RCS (m²)

Purposes: comms

External: N2YO · Heavens-Above · Gunter

§ Orbital elements

Epoch: 2026-09-20T00:37:24.487104Z

Period
93.91 min
Inclination
97.2846°
Eccentricity
0.0001701
Mean motion
15.33457049 rev/d
Perigee alt
464.3 km
Apogee alt
466.7 km
Semi-major
6,843.6 km
B*
5.6964e-4
RAAN
116.4794°
Arg perigee
83.7401°
Mean anomaly
276.4035°
Rev number
2,110

§ Raw data

STARLINK-376351 69029U 26101E   26263.02597786  .00018367  00000+0  56964-3 0  99962 69029  97.2846 116.4794 0001701  83.7401 276.4035 15.33457049 21100

JSON: /api/v1/satellites/69029 · /tle

For live sub-satellite position, see the globe view (requires WebGL).

§ Visibility from observer

Set your observer location to see the next 7 days of passes ≥ 10°. The values pass through the URL so the page stays shareable.

No JS? Fill the form by hand. The geolocation button needs JavaScript.